Theta_e
349 350 349 348 348 347 347 347 349 349 351 353 352 350 348 348 349 347 347 349 347 346 344 343 347 351 349 349 351 351 350 349 345
345 347 349 350 348 348 349 347 350 350 351 353 353 351 351 349 348 347 345 345 343 346 344 345 345 343 348 349 348 348 351 350 349
342 343 347 349 350 348 348 348 350 351 351 353 353 352 351 349 349 347 346 347 347 344 347 345 347 348 349 350 348 352 351 347 350
341 343 344 345 349 349 349 349 349 350 351 351 352 351 351 349 349 349 349 349 348 347 346 349 349 347 351 349 350 351 350 350 345
341 341 343 345 346 348 350 350 350 350 350 351 352 351 349 349 349 349 349 348 348 348 348 347 348 350 348 348 350 350 349 350 348
342 342 343 346 348 348 349 349 351 350 349 351 350 350 351 350 349 350 348 349 349 349 349 348 348 349 349 351 351 350 350 350 350
342 342 346 347 349 350 349 350 350 351 351 350 349 350 350 351 350 350 349 349 349 350 350 350 349 349 348 350 350 350 350 351 350
342 343 344 346 347 348 350 351 350 350 349 350 346 349 350 352 351 349 349 349 349 350 350 350 349 349 348 349 350 348 348 349 351
341 342 341 344 345 345 345 348 348 349 350 350 346 347 349 349 350 349 349 350 349 350 350 349 349 349 349 349 349 347 346 348 352
341 342 344 343 343 344 343 344 345 346 347 348 347 345 347 350 349 350 350 350 350 350 350 351 350 350 350 349 349 348 348 347 347
341 342 344 342 342 342 342 338 337 339 342 344 345 346 345 350 350 349 350 347 349 349 349 350 351 350 350 349 350 349 350 349 348
343 344 345 343 343 342 340 333 332 333 333 334 337 339 340 344 344 344 344 342 343 346 346 347 349 351 351 351 349 348 348 348 348
345 348 346 346 344 343 343 342 341 334 332 331 332 329 333 336 339 341 342 343 343 344 345 347 348 348 347 348 349 349 348 343 342
346 345 345 344 344 343 341 343 343 343 340 341 342 340 331 329 335 340 340 340 341 341 341 341 342 342 342 343 341 340 340 340 341
345 344 344 344 343 342 341 341 342 343 342 342 341 339 340 340 336 341 340 341 341 340 339 339 339 340 339 338 340 341 341 340 338
341 337 335 334 335 335 336 336 338 340 340 340 338 339 339 339 340 340 340 341 340 340 340 339 340 340 339 339 338 338 338 338 338
336 336 335 334 333 333 334 335 335 336 335 335 337 339 339 339 340 340 339 339 338 337 336 337 339 337 336 336 336 337 338 338 338
336 336 336 335 334 333 333 332 334 334 334 336 336 338 338 337 338 337 336 334 334 334 335 335 334 334 334 333 334 335 335 336 336
336 336 336 335 335 333 332 332 334 336 334 336 336 338 337 336 335 334 334 334 334 334 334 333 332 333 333 333 333 334 334 333 333
336 336 335 334 332 332 332 333 332 336 337 336 334 335 335 334 334 333 331 332 332 333 332 332 332 332 332 332 333 333 333 332 332
Wind_Speed
7 8 13 20 23 25 24 24 24 24 23 22 22 21 23 24 23 20 19 16 15 14 13 12 9 7 7 8 9 9 8 7 7
7 5 6 13 18 23 22 26 26 25 24 22 21 21 21 22 23 22 21 20 18 17 15 10 16 16 9 9 10 11 11 9 9
7 4 3 5 14 22 24 26 24 24 25 23 22 20 20 19 20 20 23 22 20 21 14 19 9 13 11 11 11 8 11 11 13
6 4 4 3 7 15 20 24 26 24 25 26 24 22 22 19 20 20 23 22 21 21 21 14 9 17 12 13 13 13 12 12 18
5 2 1 2 5 10 15 22 25 30 27 28 25 25 24 23 21 20 21 23 24 24 21 19 17 15 16 14 14 15 17 12 11
6 3 2 2 5 9 13 19 25 29 31 29 28 25 25 23 23 23 21 22 21 22 23 22 20 19 17 16 14 14 13 13 13
8 5 1 1 3 6 12 18 20 24 25 28 30 23 27 25 24 21 21 20 21 21 23 22 21 21 20 18 15 15 15 15 15
9 6 2 2 4 5 6 10 20 19 25 25 28 29 23 26 21 23 22 22 22 21 22 22 22 22 22 21 18 18 19 18 17
10 8 4 2 3 5 6 2 9 16 19 22 29 28 29 26 26 23 23 25 24 25 25 24 25 24 24 22 20 19 21 21 17
11 8 6 4 5 6 6 7 3 7 11 15 18 24 22 22 20 18 19 20 22 24 25 23 24 25 25 25 22 21 24 23 22
10 9 9 7 8 10 10 12 13 11 4 8 13 14 18 14 15 16 14 19 20 19 21 24 24 25 25 25 24 24 24 26 27
9 10 11 9 10 10 9 10 11 14 13 11 4 5 5 2 8 8 8 12 14 16 18 21 22 25 26 25 24 24 23 26 23
11 10 12 11 12 10 7 7 7 8 9 9 8 10 8 3 4 9 11 10 10 13 16 18 16 14 20 22 18 21 21 19 20
14 12 12 11 11 10 10 9 8 7 6 5 5 7 2 8 8 11 8 9 10 10 11 13 15 19 20 18 17 17 14 13 16
14 14 12 10 9 8 7 6 7 9 8 9 8 7 9 11 14 15 9 9 12 13 10 9 9 11 11 15 19 22 22 21 19
15 13 12 9 8 7 6 5 7 8 9 9 8 10 9 10 12 9 9 10 9 9 9 10 7 9 10 11 11 13 15 19 21
14 12 10 8 6 5 5 5 7 10 9 9 8 8 6 7 7 7 7 5 3 4 3 2 3 4 5 5 5 6 6 7 6
12 10 8 6 5 4 5 6 7 6 8 8 7 8 7 6 6 5 5 5 4 3 4 6 5 4 3 4 2 2 2 2 3
11 9 6 5 3 3 5 6 6 6 7 8 8 10 6 5 3 4 5 5 4 4 4 5 7 6 5 4 5 5 7 8 8
9 8 7 5 3 3 6 5 4 7 7 7 9 9 11 9 7 6 6 7 6 5 6 6 5 3 3 2 2 3 3 3 2
Wind_Direction
168 202 214 214 207 211 208 210 204 203 200 203 203 203 208 211 209 210 211 218 206 216 222 216 212 203 219 238 231 241 257 266 256
172 194 224 220 211 205 203 208 204 204 200 203 204 205 210 212 213 210 213 212 215 218 221 233 212 227 215 227 231 245 249 264 249
153 164 180 213 207 209 211 204 208 204 204 204 206 205 210 210 213 213 203 208 215 213 222 225 228 217 222 229 240 231 246 249 252
153 156 154 176 200 210 208 207 206 205 208 204 208 206 210 209 214 214 206 208 215 221 218 244 218 236 225 230 233 240 254 249 237
156 151 164 220 211 212 215 214 212 208 206 207 209 212 211 211 214 213 215 217 220 224 224 228 235 242 242 240 239 240 241 237 236
174 164 164 272 253 240 227 224 219 206 206 208 205 210 210 214 213 214 216 218 219 222 222 227 231 236 230 234 241 237 243 227 237
169 169 143 13 308 274 249 232 226 218 207 209 195 199 205 212 211 218 220 218 220 222 226 231 228 226 226 230 233 237 239 240 244
172 172 152 51 19 342 299 243 221 224 216 212 204 196 208 217 201 214 220 223 218 224 225 230 229 226 227 230 231 235 245 242 242
184 174 161 107 27 357 5 307 217 214 206 203 203 208 211 212 215 215 214 221 220 225 224 223 225 223 225 231 234 237 240 238 239
192 192 163 142 93 67 59 76 139 186 197 201 201 206 208 203 206 211 220 222 227 231 231 226 229 224 225 227 239 235 239 245 243
192 199 166 156 131 114 97 92 96 88 121 186 186 197 219 202 194 198 211 221 227 237 239 236 232 232 229 228 232 236 243 246 246
186 186 166 161 151 142 125 117 109 111 99 93 102 158 5 203 245 226 223 230 236 237 242 240 240 239 236 236 237 237 238 244 247
155 157 162 168 165 168 163 171 161 151 133 130 156 76 92 318 298 265 243 247 239 233 234 240 238 230 234 236 232 235 240 252 249
148 157 159 152 159 176 181 174 184 196 213 222 248 261 210 44 308 273 268 235 238 236 231 237 245 256 255 252 244 246 243 242 248
148 152 158 159 161 165 172 184 196 202 211 214 230 228 230 225 224 244 229 230 242 244 250 239 244 266 270 270 262 258 254 259 269
150 151 151 153 160 158 161 184 174 187 196 200 203 210 216 220 221 232 224 226 238 242 242 248 242 246 256 265 271 270 265 265 273
154 155 153 152 152 159 163 172 193 196 216 190 201 181 188 166 180 189 187 173 163 205 238 244 249 249 271 274 277 269 254 256 254
160 160 159 157 159 163 177 165 196 202 189 196 189 185 178 162 166 169 183 186 211 237 212 213 183 161 159 130 90 140 143 125 129
168 173 179 183 173 164 165 181 173 179 179 175 189 195 177 155 153 148 189 201 217 177 169 169 145 136 125 116 122 118 115 115 117
181 186 198 210 212 189 167 174 175 176 168 168 169 178 189 187 172 186 173 170 163 170 158 161 171 175 182 199 205 203 170 157 162